sat.trackr.live / text

‹ back to catalog

STARLINK-30953

NORAD 58491 · 2023-186U

PAYLOAD ACTIVE UNKNOWN

§ Identity

Operator
Country
US
Launch date
2023-12-03
Launch site
AFETR
Launch vehicle
Mass (kg)
RCS (m²)

Purposes: comms

External: N2YO · Heavens-Above · Gunter

§ Orbital elements

Epoch: 2026-09-20T10:23:40.862976Z

Period
94.27 min
Inclination
42.9987°
Eccentricity
0.0000651
Mean motion
15.27564741 rev/d
Perigee alt
482.6 km
Apogee alt
483.5 km
Semi-major
6,861.2 km
B*
-7.2193e-5
RAAN
247.6998°
Arg perigee
302.0056°
Mean anomaly
58.0732°
Rev number
15,767

§ Raw data

STARLINK-309531 58491U 23186U   26263.43311184 -.00002247  00000+0 -72193-4 0  99932 58491  42.9987 247.6998 0000651 302.0056  58.0732 15.27564741157674

JSON: /api/v1/satellites/58491 · /tle

For live sub-satellite position, see the globe view (requires WebGL).

§ Visibility from observer

Set your observer location to see the next 7 days of passes ≥ 10°. The values pass through the URL so the page stays shareable.

No JS? Fill the form by hand. The geolocation button needs JavaScript.